TimeCEST,TemperatureF,Dew PointF,Humidity,Sea Level PressureIn,VisibilityMPH,Wind Direction,Wind SpeedMPH,Gust SpeedMPH,PrecipitationIn,Events,Conditions,WindDirDegrees,DateUTC
12:55 AM,32.0,28.4,87,30.36,6.2,North,11.5,26.5,N/A,,Scattered Clouds,350,2013-09-25 22:55:00
1:55 AM,32.0,28.4,87,30.36,6.2,North,16.1,-,N/A,,Mostly Cloudy,10,2013-09-25 23:55:00
2:00 AM,32,29,84,,7,North,16.1,,,,Mostly Cloudy,10,2013-09-26 00:00:00
2:55 AM,33.8,28.4,81,30.36,6.2,NNE,13.8,-,N/A,,Scattered Clouds,30,2013-09-26 00:55:00
3:55 AM,33.8,28.4,81,30.36,6.2,North,16.1,34.5,N/A,,Scattered Clouds,360,2013-09-26 01:55:00
4:55 AM,33.8,26.6,75,30.36,6.2,Variable,3.5,-,N/A,,Scattered Clouds,0,2013-09-26 02:55:00
5:00 AM,33,27,72,,7,,3.5,,,,Mostly Cloudy,,2013-09-26 03:00:00
5:55 AM,33.8,26.6,75,30.36,6.2,WSW,4.6,16.1,N/A,,Scattered Clouds,240,2013-09-26 03:55:00
6:55 AM,33.8,24.8,70,30.33,6.2,West,5.8,-,N/A,,Mostly Cloudy,280,2013-09-26 04:55:00
7:55 AM,33.8,26.6,75,30.33,6.2,WSW,4.6,-,N/A,,Mostly Cloudy,240,2013-09-26 05:55:00
8:00 AM,34,27,67,,16,WSW,4.6,,,,Mostly Cloudy,240,2013-09-26 06:00:00
8:55 AM,33.8,26.6,75,30.36,6.2,NW,5.8,-,N/A,,Mostly Cloudy,320,2013-09-26 06:55:00
9:55 AM,33.8,26.6,75,30.36,6.2,West,4.6,-,N/A,,Mostly Cloudy,280,2013-09-26 07:55:00
10:55 AM,33.8,24.8,70,30.36,6.2,NNW,9.2,31.1,N/A,,Mostly Cloudy,330,2013-09-26 08:55:00
11:00 AM,34,25,59,,19,NNW,9.2,,,,Mostly Cloudy,330,2013-09-26 09:00:00
11:55 AM,35.6,24.8,65,30.36,6.2,NW,4.6,-,N/A,,Mostly Cloudy,320,2013-09-26 09:55:00
12:55 PM,35.6,26.6,70,30.39,6.2,Variable,3.5,-,N/A,,Mostly Cloudy,0,2013-09-26 10:55:00
2:00 PM,36,26,57,,12,Calm,Calm,,,,Mostly Cloudy,,2013-09-26 12:00:00
2:55 PM,35.6,28.4,75,30.39,6.2,NNW,4.6,-,N/A,,Scattered Clouds,340,2013-09-26 12:55:00
3:55 PM,33.8,28.4,81,30.39,6.2,WNW,4.6,18.4,N/A,,Scattered Clouds,300,2013-09-26 13:55:00
4:55 PM,33.8,26.6,75,30.39,6.2,North,6.9,18.4,N/A,,Scattered Clouds,10,2013-09-26 14:55:00
5:00 PM,34,26,64,,19,North,6.9,,,,Mostly Cloudy,10,2013-09-26 15:00:00
5:55 PM,33.8,24.8,70,30.42,6.2,NNW,8.1,25.3,N/A,,Scattered Clouds,340,2013-09-26 15:55:00
6:55 PM,33.8,23.0,65,30.39,6.2,West,8.1,21.9,N/A,,Scattered Clouds,280,2013-09-26 16:55:00
7:55 PM,33.8,23.0,65,30.36,6.2,SSW,4.6,-,N/A,,Scattered Clouds,200,2013-09-26 17:55:00
8:00 PM,33,23,57,,9,SSW,4.6,,,,Mostly Cloudy,200,2013-09-26 18:00:00
8:55 PM,33.8,24.8,70,30.36,6.2,WNW,4.6,-,N/A,,Scattered Clouds,300,2013-09-26 18:55:00
9:55 PM,32.0,24.8,75,30.36,6.2,North,18.4,38.0,N/A,,Scattered Clouds,10,2013-09-26 19:55:00
10:55 PM,32.0,24.8,75,30.36,6.2,NNE,15.0,-,N/A,,Scattered Clouds,20,2013-09-26 20:55:00
11:00 PM,32,25,68,,6,NNE,15.0,,,,Partly Cloudy,20,2013-09-26 21:00:00
11:55 PM,32.0,24.8,75,30.36,6.2,North,12.7,28.8,N/A,,Partly Cloudy,360,2013-09-26 21:55:00